Location: Haulchin
(50.3172°N, 3.4360°E)
Time: 01:31:26
(UTC+00:00)

Cosmos 2292 - Pass Details

Date: 23 May 2024
Orbit: 393 x 1650 km, 83.0° (Epoch: 16 June)

Event Time Altitude Azimuth Distance (km) Brightness Sun altitude
Rises 02:36:38 0° 347° (NNW) 2,313 8.6 -9.4°
Reaches altitude 10° 02:38:32 10° 344° (NNW) 1,475 7.5 -9.2°
Maximum altitude 02:41:35 63° 263° (W) 497 4.4 -8.8°
Drops below altitude 10° 02:45:10 10° 182° (S) 1,722 6.9 -8.5°
Enters shadow 02:46:47 - 180° (S) 2,424 7.7 -8.3°
